When you browse on this site, cookies collect data to enhance your experience and personalize the content and advertising you see.
Visit our Privacy Policy to learn more. By continuing to use the site, you agree to this use of cookies and data.
  • în România
  • Lista ţărilor
  • Pe 7 zile
  • Temperatura apei
  • Meteo pe hartă
  • Widget-uri
  • user-avatar
    Intrare

    Meteo pe oră la Bandar Abbas

    Astăzi, 24 August, Sâmbătă

    Timp Temperatura Precipitaţii Vânt Presiune Umiditate
    00:00 +31°C° 0 mm 2 m/s 752 mmHg 83%
    01:00 +31°C° 0 mm 2 m/s 752 mmHg 81%
    02:00 +30°C° 0 mm 2 m/s 752 mmHg 82%
    03:00 +30°C° 0 mm 2 m/s 752 mmHg 83%
    04:00 +30°C° 0 mm 2 m/s 752 mmHg 84%
    05:00 +30°C° 0 mm 2 m/s 752 mmHg 81%
    06:00 +31°C° 0 mm 2 m/s 753 mmHg 79%
    07:00 +31°C° 0 mm 2 m/s 753 mmHg 77%
    08:00 +34°C° 0 mm 2 m/s 753 mmHg 68%
    09:00 +36°C° 0 mm 2 m/s 754 mmHg 59%
    10:00 +38°C° 0 mm 2 m/s 754 mmHg 50%
    11:00 +38°C° 0 mm 3 m/s 753 mmHg 49%
    12:00 +38°C° 0 mm 4 m/s 752 mmHg 48%
    13:00 +40°C° 0 mm 4 m/s 752 mmHg 47%
    14:00 +40°C° 0 mm 4 m/s 751 mmHg 46%
    15:00 +39°C° 0 mm 3 m/s 751 mmHg 45%
    16:00 +40°C° 0 mm 3 m/s 750 mmHg 44%
    17:00 +38°C° 0 mm 2 m/s 751 mmHg 49%
    18:00 +37°C° 0 mm 2 m/s 751 mmHg 54%
    19:00 +35°C° 0 mm 1 m/s 751 mmHg 59%
    20:00 +35°C° 0 mm 2 m/s 751 mmHg 62%
    21:00 +34°C° 0 mm 3 m/s 752 mmHg 65%
    22:00 +34°C° 0 mm 3 m/s 752 mmHg 68%
    23:00 +33°C° 0 mm 3 m/s 752 mmHg 72%

    Mâine, 25 August, Duminică

    Timp Temperatura Precipitaţii Vânt Presiune Umiditate
    00:00 +32°C° 0 mm 2 m/s 752 mmHg 75%
    01:00 +31°C° 0 mm 1 m/s 752 mmHg 79%
    02:00 +31°C° 0 mm 2 m/s 752 mmHg 75%
    03:00 +31°C° 0 mm 2 m/s 751 mmHg 71%
    04:00 +33°C° 0 mm 3 m/s 751 mmHg 67%
    05:00 +34°C° 0 mm 2 m/s 751 mmHg 61%
    06:00 +35°C° 0 mm 2 m/s 752 mmHg 55%
    07:00 +35°C° 0 mm 1 m/s 752 mmHg 49%
    08:00 +37°C° 0 mm 1 m/s 752 mmHg 42%
    09:00 +40°C° 0 mm 1 m/s 752 mmHg 35%
    10:00 +39°C° 0 mm 0 m/s 752 mmHg 28%
    11:00 +42°C° 0 mm 2 m/s 752 mmHg 27%
    12:00 +44°C° 0 mm 3 m/s 751 mmHg 26%
    13:00 +44°C° 0 mm 4 m/s 750 mmHg 24%
    14:00 +44°C° 0 mm 4 m/s 750 mmHg 25%
    15:00 +45°C° 0 mm 5 m/s 750 mmHg 25%
    16:00 +45°C° 0 mm 5 m/s 749 mmHg 25%
    17:00 +42°C° 0 mm 5 m/s 749 mmHg 31%
    18:00 +40°C° 0 mm 4 m/s 750 mmHg 36%
    19:00 +38°C° 0 mm 4 m/s 750 mmHg 41%
    20:00 +36°C° 0 mm 3 m/s 750 mmHg 44%
    21:00 +35°C° 0 mm 2 m/s 751 mmHg 47%
    22:00 +33°C° 0 mm 1 m/s 751 mmHg 50%
    23:00 +34°C° 0 mm 2 m/s 751 mmHg 52%

    Poimâine, 26 August, Luni

    Timp Temperatura Precipitaţii Vânt Presiune Umiditate
    00:00 +34°C° 0 mm 2 m/s 751 mmHg 54%
    01:00 +32°C° 0 mm 2 m/s 751 mmHg 56%
    02:00 +32°C° 0 mm 2 m/s 751 mmHg 56%
    03:00 +32°C° 0 mm 2 m/s 751 mmHg 57%
    04:00 +31°C° 0 mm 2 m/s 750 mmHg 57%
    05:00 +34°C° 0 mm 2 m/s 751 mmHg 52%
    06:00 +35°C° 0 mm 2 m/s 751 mmHg 47%
    07:00 +35°C° 0 mm 1 m/s 751 mmHg 42%
    08:00 +37°C° 0 mm 1 m/s 751 mmHg 37%
    09:00 +40°C° 0 mm 1 m/s 751 mmHg 31%
    10:00 +42°C° 0 mm 1 m/s 751 mmHg 26%
    11:00 +43°C° 0 mm 2 m/s 751 mmHg 23%
    12:00 +45°C° 0 mm 2 m/s 751 mmHg 20%
    13:00 +46°C° 0 mm 2 m/s 750 mmHg 17%
    14:00 +47°C° 0 mm 4 m/s 750 mmHg 16%
    15:00 +47°C° 0 mm 5 m/s 749 mmHg 14%
    16:00 +47°C° 0 mm 6 m/s 748 mmHg 13%
    17:00 +45°C° 0 mm 5 m/s 749 mmHg 19%
    18:00 +41°C° 0 mm 5 m/s 749 mmHg 26%
    19:00 +38°C° 0 mm 4 m/s 749 mmHg 32%
    20:00 +37°C° 0 mm 4 m/s 750 mmHg 35%
    21:00 +36°C° 0 mm 3 m/s 750 mmHg 39%
    22:00 +35°C° 0 mm 2 m/s 751 mmHg 42%
    23:00 +35°C° 0 mm 2 m/s 751 mmHg 41%

    27 August, Marţi

    Timp Temperatura Precipitaţii Vânt Presiune Umiditate
    00:00 +35°C° 0 mm 2 m/s 751 mmHg 39%
    01:00 +34°C° 0 mm 2 m/s 751 mmHg 38%
    02:00 +34°C° 0 mm 2 m/s 751 mmHg 37%
    03:00 +32°C° 0 mm 1 m/s 751 mmHg 36%
    04:00 +32°C° 0 mm 1 m/s 751 mmHg 34%
    05:00 +33°C° 0 mm 1 m/s 751 mmHg 31%
    06:00 +34°C° 0 mm 1 m/s 751 mmHg 28%
    07:00 +36°C° 0 mm 2 m/s 752 mmHg 25%
    08:00 +38°C° 0 mm 2 m/s 752 mmHg 21%
    09:00 +41°C° 0 mm 1 m/s 752 mmHg 18%
    10:00 +43°C° 0 mm 1 m/s 752 mmHg 14%
    11:00 +45°C° 0 mm 2 m/s 751 mmHg 13%
    12:00 +46°C° 0 mm 2 m/s 751 mmHg 11%
    13:00 +47°C° 0 mm 3 m/s 750 mmHg 10%
    14:00 +47°C° 0 mm 3 m/s 749 mmHg 10%
    15:00 +48°C° 0 mm 4 m/s 749 mmHg 10%
    16:00 +49°C° 0 mm 5 m/s 748 mmHg 9%
    17:00 +46°C° 0 mm 5 m/s 748 mmHg 12%
    18:00 +43°C° 0 mm 4 m/s 749 mmHg 15%
    19:00 +40°C° 0 mm 4 m/s 749 mmHg 18%
    20:00 +38°C° 0 mm 4 m/s 749 mmHg 21%
    21:00 +37°C° 0 mm 4 m/s 750 mmHg 24%
    22:00 +37°C° 0 mm 4 m/s 750 mmHg 27%
    23:00 +36°C° 0 mm 3 m/s 750 mmHg 29%

    28 August, Miercuri

    Timp Temperatura Precipitaţii Vânt Presiune Umiditate
    00:00 +35°C° 0 mm 3 m/s 750 mmHg 31%
    01:00 +34°C° 0 mm 2 m/s 750 mmHg 32%
    02:00 +34°C° 0 mm 2 m/s 750 mmHg 32%
    03:00 +32°C° 0 mm 2 m/s 750 mmHg 31%
    04:00 +31°C° 0 mm 1 m/s 750 mmHg 31%
    05:00 +32°C° 0 mm 1 m/s 750 mmHg 28%
    06:00 +33°C° 0 mm 1 m/s 751 mmHg 25%
    07:00 +34°C° 0 mm 1 m/s 751 mmHg 22%
    08:00 +38°C° 0 mm 2 m/s 751 mmHg 18%
    09:00 +41°C° 0 mm 2 m/s 751 mmHg 14%
    10:00 +45°C° 0 mm 2 m/s 751 mmHg 10%
    11:00 +46°C° 0 mm 2 m/s 751 mmHg 9%
    12:00 +46°C° 0 mm 2 m/s 750 mmHg 9%
    13:00 +47°C° 0 mm 2 m/s 750 mmHg 8%
    14:00 +47°C° 0 mm 3 m/s 749 mmHg 8%
    15:00 +48°C° 0 mm 4 m/s 749 mmHg 8%
    16:00 +49°C° 0 mm 4 m/s 748 mmHg 8%
    17:00 +46°C° 0 mm 5 m/s 749 mmHg 9%
    18:00 +43°C° 0 mm 5 m/s 749 mmHg 11%
    19:00 +40°C° 0 mm 5 m/s 749 mmHg 13%
    20:00 +38°C° 0 mm 4 m/s 750 mmHg 15%
    21:00 +38°C° 0 mm 3 m/s 750 mmHg 16%
    22:00 +37°C° 0 mm 2 m/s 751 mmHg 17%
    23:00 +36°C° 0 mm 2 m/s 751 mmHg 18%

    29 August, Joi

    Timp Temperatura Precipitaţii Vânt Presiune Umiditate
    00:00 +35°C° 0 mm 2 m/s 751 mmHg 20%
    01:00 +34°C° 0 mm 2 m/s 751 mmHg 21%
    02:00 +32°C° 0 mm 2 m/s 751 mmHg 21%
    03:00 +31°C° 0 mm 2 m/s 751 mmHg 22%
    04:00 +30°C° 0 mm 1 m/s 751 mmHg 22%
    05:00 +32°C° 0 mm 1 m/s 751 mmHg 20%
    06:00 +33°C° 0 mm 1 m/s 752 mmHg 18%
    07:00 +35°C° 0 mm 1 m/s 752 mmHg 16%
    08:00 +39°C° 0 mm 1 m/s 752 mmHg 14%
    09:00 +41°C° 0 mm 1 m/s 752 mmHg 12%
    10:00 +44°C° 0 mm 1 m/s 752 mmHg 10%
    11:00 +45°C° 0 mm 1 m/s 751 mmHg 9%
    12:00 +46°C° 0 mm 1 m/s 751 mmHg 8%
    13:00 +49°C° 0 mm 2 m/s 750 mmHg 7%
    14:00 +49°C° 0 mm 2 m/s 750 mmHg 7%
    15:00 +50°C° 0 mm 3 m/s 749 mmHg 7%
    16:00 +50°C° 0 mm 4 m/s 749 mmHg 7%
    17:00 +47°C° 0 mm 4 m/s 749 mmHg 10%
    18:00 +43°C° 0 mm 5 m/s 749 mmHg 13%
    19:00 +40°C° 0 mm 5 m/s 749 mmHg 15%
    20:00 +40°C° 0 mm 4 m/s 750 mmHg 18%
    21:00 +38°C° 0 mm 4 m/s 750 mmHg 20%
    22:00 +37°C° 0 mm 3 m/s 751 mmHg 23%
    23:00 +36°C° 0 mm 3 m/s 751 mmHg 26%
    Arată mai mult